KB7STN Weather Reports


time (UTC)temp
F
wind
direction
speed
knots
gust
knots
rain 1hr
in
rain 24hr
in
rain mn
in
humidity
%
barometer
mb
20260902192520 79 246 2.6 7.0 0.00 0.00 0.00 27 1016.6
20260902192020 79 234 2.6 7.0 0.00 0.00 0.00 26 1016.4
20260902191520 79 182 1.7 6.1 0.00 0.00 0.00 26 1016.5
20260902191020 79 247 1.7 7.8 0.00 0.00 0.00 27 1016.8
20260902190520 79 276 1.7 13.9 0.00 0.00 0.00 27 1016.7
20260902190020 78 259 1.7 5.2 0.00 0.00 0.00 30 1017.0
20260902185520 78 258 2.6 8.7 0.00 0.00 0.00 29 1016.9
20260902185020 78 246 2.6 10.4 0.00 0.00 0.00 29 1017.0
20260902184520 78 263 2.6 9.6 0.00 0.00 0.00 29 1017.0
20260902184020 78 177 1.7 5.2 0.00 0.00 0.00 30 1017.0
20260902183520 78 269 1.7 7.8 0.00 0.00 0.00 30 1017.1
20260902183020 77 275 2.6 7.8 0.00 0.00 0.00 30 1017.2
20260902182520 77 279 3.5 9.6 0.00 0.00 0.00 31 1017.4
20260902182020 77 273 3.5 14.8 0.00 0.00 0.00 30 1017.4
20260902181520 77 236 2.6 6.1 0.00 0.00 0.00 31 1017.4
20260902181020 77 239 2.6 6.1 0.00 0.00 0.00 32 1017.3
20260902180520 76 217 3.5 11.3 0.00 0.00 0.00 31 1017.5
20260902180020 76 217 2.6 10.4 0.00 0.00 0.00 31 1017.5
20260902175520 76 228 2.6 8.7 0.00 0.00 0.00 32 1017.7
20260902175020 76 254 2.6 11.3 0.00 0.00 0.00 32 1017.8
20260902174520 76 254 2.6 11.3 0.00 0.00 0.00 32 1017.7
20260902174020 76 262 2.6 6.1 0.00 0.00 0.00 34 1017.6
20260902173520 76 230 1.7 7.0 0.00 0.00 0.00 35 1017.9
20260902173020 76 193 2.6 8.7 0.00 0.00 0.00 36 1017.8
20260902172520 75 178 3.5 10.4 0.00 0.00 0.00 36 1017.8
20260902172020 75 262 3.5 10.4 0.00 0.00 0.00 37 1018.0
20260902171520 75 263 2.6 7.0 0.00 0.00 0.00 35 1018.1
20260902171020 75 236 2.6 12.2 0.00 0.00 0.00 36 1018.0
20260902170520 75 272 2.6 8.7 0.00 0.00 0.00 37 1018.0
20260902170020 74 250 2.6 12.2 0.00 0.00 0.00 36 1018.2
20260902165520 75 257 2.6 7.8 0.00 0.00 0.00 34 1018.2
20260902165020 75 252 2.6 7.0 0.00 0.00 0.00 37 1018.1
20260902164520 75 269 2.6 7.8 0.00 0.00 0.00 35 1018.1
20260902164020 75 271 2.6 12.2 0.00 0.00 0.00 36 1018.2
20260902163520 74 246 3.5 8.7 0.00 0.00 0.00 37 1018.0
20260902163020 74 262 3.5 13.0 0.00 0.00 0.00 37 1018.0
20260902162520 74 258 2.6 7.8 0.00 0.00 0.00 37 1018.2
20260902162020 73 212 1.7 7.8 0.00 0.00 0.00 38 1018.1
20260902161520 73 244 1.7 4.3 0.00 0.00 0.00 39 1018.0
20260902161020 73 250 0.9 6.1 0.00 0.00 0.00 40 1018.0
20260902160520 73 232 0.9 4.3 0.00 0.00 0.00 39 1018.0
20260902160020 72 229 0.9 6.1 0.00 0.00 0.00 41 1018.1
20260902155520 72 271 0.0 2.6 0.00 0.00 0.00 44 1017.9
20260902155020 72 271 0.0 3.5 0.00 0.00 0.00 45 1017.9
20260902154520 71 271 0.0 1.7 0.00 0.00 0.00 45 1018.0
20260902154020 71 271 0.9 4.3 0.00 0.00 0.00 44 1018.0
20260902153520 72 274 0.9 5.2 0.00 0.00 0.00 42 1018.2
20260902153020 72 276 0.9 3.5 0.00 0.00 0.00 42 1018.1
20260902152520 72 275 0.9 7.8 0.00 0.00 0.00 41 1018.2
20260902152020 71 229 0.9 7.0 0.00 0.00 0.00 42 1018.2
20260902151520 71 236 0.9 3.5 0.00 0.00 0.00 42 1018.2
20260902151020 71 231 1.7 4.3 0.00 0.00 0.00 41 1018.2
20260902150520 70 236 0.9 7.0 0.00 0.00 0.00 43 1018.2
20260902150020 70 280 0.9 6.1 0.00 0.00 0.00 44 1018.2
20260902145520 69 168 0.0 0.0 0.00 0.00 0.00 46 1018.1
20260902145020 69 168 0.0 0.0 0.00 0.00 0.00 47 1018.1
20260902144520 69 168 0.9 4.3 0.00 0.00 0.00 47 1018.1
20260902144020 69 174 0.9 7.0 0.00 0.00 0.00 47 1017.9
20260902143520 69 236 0.0 2.6 0.00 0.00 0.00 49 1017.9
20260902143020 69 227 0.0 0.0 0.00 0.00 0.00 53 1017.9
20260902142520 69 227 0.0 2.6 0.00 0.00 0.00 53 1018.0
20260902142020 69 228 0.0 4.3 0.00 0.00 0.00 53 1018.0
20260902141520 68 232 0.0 0.0 0.00 0.00 0.00 52 1017.9
20260902141020 67 232 0.0 3.5 0.00 0.00 0.00 49 1018.0
20260902140520 66 232 0.0 0.0 0.00 0.00 0.00 51 1018.0
20260902140020 65 232 0.0 0.0 0.00 0.00 0.00 53 1018.1
20260902135520 64 232 0.0 1.7 0.00 0.00 0.00 54 1018.1
20260902135020 63 232 0.0 2.6 0.00 0.00 0.00 55 1018.0
20260902134520 62 232 0.0 0.0 0.00 0.00 0.00 56 1018.0
20260902134020 62 232 0.0 0.0 0.00 0.00 0.00 56 1018.0
20260902133520 62 232 0.0 0.0 0.00 0.00 0.00 58 1018.0
20260902133020 62 232 0.0 0.0 0.00 0.00 0.00 58 1018.0
20260902132520 62 232 0.0 0.0 0.00 0.00 0.00 60 1018.1
20260902132020 62 232 0.0 0.0 0.00 0.00 0.00 59 1018.1
20260902131521 62 232 0.0 0.0 0.00 0.00 0.00 59 1018.1
20260902131020 62 232 0.0 0.0 0.00 0.00 0.00 60 1018.1
20260902130520 62 232 0.0 0.0 0.00 0.00 0.00 61 1018.0
20260902130020 62 232 0.0 0.0 0.00 0.00 0.00 62 1018.0
20260902125520 62 232 0.0 0.0 0.00 0.00 0.00 62 1017.9
20260902125020 62 232 0.0 0.0 0.00 0.00 0.00 61 1018.0
20260902124520 62 232 0.0 0.0 0.00 0.00 0.00 60 1018.0
20260902124020 62 232 0.0 0.0 0.00 0.00 0.00 58 1017.9
20260902123520 63 232 0.0 0.0 0.00 0.00 0.00 58 1017.9
20260902123020 63 232 0.0 0.0 0.00 0.00 0.00 57 1018.0
20260902122520 64 232 0.0 0.0 0.00 0.00 0.00 55 1017.8
20260902122020 64 232 0.0 0.0 0.00 0.00 0.00 54 1017.8
20260902121520 64 232 0.0 0.0 0.00 0.00 0.00 54 1017.8
20260902121020 65 232 0.0 0.0 0.00 0.00 0.00 52 1017.8
20260902120520 65 232 0.0 0.0 0.00 0.00 0.00 52 1017.8
20260902120020 65 232 0.0 0.0 0.00 0.00 0.00 52 1017.9
20260902115520 65 232 0.0 0.0 0.00 0.00 0.00 52 1017.9
20260902115020 65 232 0.0 0.0 0.00 0.00 0.00 52 1017.8
20260902114520 65 232 0.0 0.0 0.00 0.00 0.00 51 1017.8
20260902114020 66 232 0.0 0.0 0.00 0.00 0.00 51 1017.8
20260902113520 66 232 0.0 0.0 0.00 0.00 0.00 51 1017.8
20260902113020 66 232 0.0 0.0 0.00 0.00 0.00 50 1017.8
20260902112520 66 232 0.0 0.0 0.00 0.00 0.00 50 1017.7
20260902112020 66 232 0.0 0.0 0.00 0.00 0.00 50 1017.8
20260902111520 66 232 0.0 0.0 0.00 0.00 0.00 50 1017.8
20260902111020 66 232 0.0 0.0 0.00 0.00 0.00 50 1017.8
20260902110520 66 232 0.0 0.0 0.00 0.00 0.00 50 1017.8
20260902110020 66 232 0.0 0.0 0.00 0.00 0.00 49 1017.7
20260902105520 66 232 0.0 0.0 0.00 0.00 0.00 49 1017.7
20260902105020 66 232 0.0 0.0 0.00 0.00 0.00 49 1017.6
20260902104520 66 232 0.0 0.0 0.00 0.00 0.00 50 1017.7
20260902104020 66 232 0.0 0.0 0.00 0.00 0.00 50 1017.7
20260902103522 65 232 0.0 0.0 0.00 0.00 0.00 50 1017.6
20260902103020 65 232 0.0 0.0 0.00 0.00 0.00 50 1017.7
20260902102520 65 232 0.0 0.0 0.00 0.00 0.00 51 1017.7
20260902102020 65 232 0.0 0.0 0.00 0.00 0.00 51 1017.7
20260902101520 65 232 0.0 0.9 0.00 0.00 0.00 51 1017.7
20260902101020 65 232 0.0 0.0 0.00 0.00 0.00 51 1017.8
20260902100520 65 232 0.0 0.0 0.00 0.00 0.00 51 1017.8
20260902100020 65 232 0.0 0.0 0.00 0.00 0.00 51 1017.8
20260902095520 65 232 0.0 1.7 0.00 0.00 0.00 51 1017.8
20260902095020 65 232 0.0 0.0 0.00 0.00 0.00 50 1017.9
20260902094520 65 232 0.0 0.9 0.00 0.00 0.00 50 1017.9
20260902094020 65 232 0.0 0.0 0.00 0.00 0.00 50 1017.9
20260902093520 65 232 0.0 0.0 0.00 0.00 0.00 49 1017.9
20260902093021 65 232 0.0 0.0 0.00 0.00 0.00 48 1017.9
20260902092520 66 232 0.0 0.0 0.00 0.00 0.00 47 1017.9
20260902092020 66 232 0.0 0.0 0.00 0.00 0.00 46 1018.0
20260902091520 66 232 0.0 0.0 0.00 0.00 0.00 46 1018.1
20260902091020 66 232 0.0 0.0 0.00 0.00 0.00 46 1018.1
20260902090520 66 232 0.0 0.0 0.00 0.00 0.00 46 1018.2
20260902090020 66 232 0.0 1.7 0.00 0.00 0.00 46 1018.2
20260902085520 66 232 0.0 0.0 0.00 0.00 0.00 46 1018.2
20260902085020 66 232 0.0 0.0 0.00 0.00 0.00 45 1018.2
20260902084520 67 232 0.0 0.9 0.00 0.00 0.00 45 1018.2
20260902084020 67 232 0.0 0.0 0.00 0.00 0.00 45 1018.2
20260902083520 67 232 0.0 0.0 0.00 0.00 0.00 44 1018.3
20260902083020 67 232 0.0 0.0 0.00 0.00 0.00 44 1018.1
20260902082521 67 232 0.0 0.0 0.00 0.00 0.00 44 1018.3
20260902082021 67 232 0.0 0.0 0.00 0.00 0.00 44 1018.3
20260902081521 67 232 0.0 1.7 0.00 0.00 0.00 44 1018.2
20260902081021 67 232 0.0 0.0 0.00 0.00 0.00 44 1018.2
20260902080521 67 232 0.0 0.0 0.00 0.00 0.00 45 1018.2
20260902080021 67 232 0.0 0.0 0.00 0.00 0.00 45 1018.3
20260902075520 66 232 0.0 0.0 0.00 0.00 0.00 45 1018.2
20260902075021 66 232 0.0 0.0 0.00 0.00 0.00 46 1018.3
20260902074521 66 232 0.0 0.0 0.00 0.00 0.00 46 1018.3
20260902074021 66 232 0.0 0.0 0.00 0.00 0.00 46 1018.2
20260902073521 66 232 0.0 0.0 0.00 0.00 0.00 46 1018.2
20260902073021 66 232 0.0 0.0 0.00 0.00 0.00 46 1018.2
20260902072521 66 232 0.0 0.0 0.00 0.00 0.00 46 1018.2
20260902072021 67 232 0.0 0.0 0.00 0.00 0.00 46 1018.1
20260902071521 67 232 0.0 0.0 0.00 0.00 0.00 46 1018.1
20260902071021 67 232 0.0 0.9 0.00 0.00 0.00 46 1018.0
20260902070521 67 232 0.0 0.0 0.00 0.00 0.00 45 1018.1
20260902070021 67 232 0.0 0.0 0.00 0.00 0.00 45 1018.1
20260902065521 67 232 0.0 1.7 0.00 0.00 0.00 44 1018.1
20260902065021 67 232 0.0 3.5 0.00 0.00 0.00 44 1018.2
20260902064521 67 234 0.0 0.0 0.00 0.00 0.00 43 1018.2
20260902064021 67 234 0.0 0.0 0.00 0.00 0.00 43 1018.1
20260902063521 68 234 0.0 0.0 0.00 0.00 0.00 43 1018.1
20260902063021 68 234 0.0 1.7 0.00 0.00 0.00 43 1018.1
20260902062521 68 232 0.0 0.0 0.00 0.00 0.00 44 1018.1
20260902062021 68 232 0.0 0.0 0.00 0.00 0.00 44 1018.1
20260902061521 68 232 0.0 0.0 0.00 0.00 0.00 46 1018.1
20260902061021 68 232 0.0 0.0 0.00 0.00 0.00 46 1018.2
20260902060521 68 232 0.0 0.0 0.00 0.00 0.00 46 1018.2
20260902060021 68 232 0.0 0.0 0.00 0.00 0.00 46 1018.2
20260902055521 68 232 0.0 0.0 0.00 0.00 0.00 47 1018.1
20260902055021 69 232 0.0 0.0 0.00 0.00 0.00 47 1018.1
20260902054521 69 232 0.0 0.0 0.00 0.00 0.00 45 1018.1
20260902054021 69 232 0.0 0.0 0.00 0.00 0.00 44 1018.1
20260902053521 69 232 0.0 0.0 0.00 0.00 0.00 44 1018.1
20260902053021 69 232 0.0 0.0 0.00 0.00 0.00 45 1018.2
20260902052521 69 232 0.0 0.9 0.00 0.00 0.00 46 1018.1
20260902052021 69 231 0.0 2.6 0.00 0.00 0.00 46 1018.2
20260902051521 69 225 0.0 0.0 0.00 0.00 0.00 47 1018.2
20260902051021 69 225 0.0 0.9 0.00 0.00 0.00 47 1018.2
20260902050521 69 225 0.0 2.6 0.00 0.00 0.00 48 1018.2
20260902050021 69 225 0.0 3.5 0.00 0.00 0.00 48 1018.3
20260902045521 70 219 0.0 0.0 0.00 0.00 0.00 48 1018.3
20260902045021 70 219 0.0 0.0 0.00 0.00 0.00 47 1018.4
20260902044521 70 219 0.0 0.0 0.00 0.00 0.00 47 1018.5
20260902044021 70 219 0.0 0.0 0.00 0.00 0.00 47 1018.4
20260902043521 70 219 0.0 2.6 0.00 0.00 0.00 47 1018.4
20260902043021 70 218 0.0 3.5 0.00 0.00 0.00 47 1018.4
20260902042521 70 217 0.0 0.0 0.00 0.00 0.00 47 1018.3
20260902042021 71 213 0.0 1.7 0.00 0.00 0.00 47 1018.3
20260902041521 71 212 0.0 0.9 0.00 0.00 0.00 47 1018.3
20260902041021 71 213 0.0 0.9 0.00 0.00 0.00 47 1018.3
20260902040521 71 213 0.0 0.9 0.00 0.00 0.00 47 1018.3
20260902040021 71 209 0.0 4.3 0.00 0.00 0.00 47 1018.4
20260902035521 71 211 0.0 3.5 0.00 0.00 0.00 47 1018.3
20260902035021 70 198 0.0 0.9 0.00 0.00 0.00 47 1018.2
20260902034521 70 196 0.0 0.0 0.00 0.00 0.00 47 1018.3
20260902034021 70 196 0.0 0.0 0.00 0.00 0.00 48 1018.2
20260902033521 69 196 0.0 0.0 0.00 0.00 0.00 48 1018.2
20260902033021 69 195 0.0 0.0 0.00 0.00 0.00 47 1018.3
20260902032521 68 194 0.0 0.0 0.00 0.00 0.00 48 1018.2
20260902032021 68 194 0.0 0.0 0.00 0.00 0.00 48 1018.1
20260902031521 69 194 0.0 0.0 0.00 0.00 0.00 50 1018.1
20260902031021 69 194 0.0 0.0 0.00 0.00 0.00 49 1018.0
20260902030521 70 194 0.0 0.0 0.00 0.00 0.00 49 1018.0
20260902030021 70 194 0.0 0.0 0.00 0.00 0.00 49 1017.9
20260902025521 71 194 0.0 0.0 0.00 0.00 0.00 47 1017.8
20260902025021 71 194 0.0 0.0 0.00 0.00 0.00 47 1017.8
20260902024521 71 194 0.0 0.0 0.00 0.00 0.00 47 1017.7
20260902024021 72 194 0.0 0.0 0.00 0.00 0.00 47 1017.6
20260902023521 72 194 0.0 0.0 0.00 0.00 0.00 47 1017.5
20260902023021 72 194 0.0 0.0 0.00 0.00 0.00 46 1017.5
20260902022521 73 194 0.0 0.0 0.00 0.00 0.00 45 1017.4
20260902022021 73 194 0.0 0.0 0.00 0.00 0.00 46 1017.4
20260902021521 73 194 0.0 0.0 0.00 0.00 0.00 44 1017.4
20260902021021 74 194 0.0 0.9 0.00 0.00 0.00 44 1017.4
20260902020521 74 194 0.0 0.0 0.00 0.00 0.00 44 1017.5
20260902020021 74 194 0.0 3.5 0.00 0.00 0.00 44 1017.4
20260902015521 74 171 0.0 0.0 0.00 0.00 0.00 44 1017.5
20260902015021 74 171 0.0 0.0 0.00 0.00 0.00 43 1017.5
20260902014521 74 171 0.0 0.0 0.00 0.00 0.00 43 1017.6
20260902014021 75 171 0.0 0.0 0.00 0.00 0.00 42 1017.5
20260902013522 75 171 0.0 0.9 0.00 0.00 0.00 41 1017.5
20260902013021 75 171 0.0 0.9 0.00 0.00 0.00 41 1017.5
20260902012521 75 170 0.0 0.0 0.00 0.00 0.00 41 1017.6
20260902012021 75 170 0.0 0.0 0.00 0.00 0.00 42 1017.6
20260902011521 75 170 0.0 3.5 0.00 0.00 0.00 41 1017.6
20260902011021 75 170 0.0 0.0 0.00 0.00 0.00 42 1017.5
20260902010521 75 170 0.0 0.0 0.00 0.00 0.00 42 1017.7
20260902010021 76 170 0.0 3.5 0.00 0.00 0.00 42 1017.7
20260902005521 76 190 0.0 2.6 0.00 0.00 0.00 43 1017.7
20260902005021 76 190 0.9 2.6 0.00 0.00 0.00 42 1017.8
20260902004521 76 199 0.9 4.3 0.00 0.00 0.00 42 1018.0
20260902004021 76 167 0.9 4.3 0.00 0.00 0.00 43 1018.1
20260902003521 76 179 1.7 8.7 0.00 0.00 0.00 43 1018.1
20260902003021 76 182 1.7 4.3 0.00 0.00 0.00 42 1018.1
20260902002521 76 173 2.6 4.3 0.00 0.00 0.00 43 1018.2
20260902002021 76 161 2.6 9.6 0.00 0.00 0.00 42 1018.2
20260902001521 76 168 1.7 6.1 0.00 0.00 0.00 42 1018.2
20260902001021 77 192 0.9 4.3 0.00 0.00 0.00 42 1018.3
20260902000521 77 207 0.9 3.5 0.00 0.00 0.00 42 1018.4
20260902000021 77 212 2.6 7.0 0.00 0.00 0.00 42 1018.3
20260901235521 77 182 1.7 8.7 0.00 0.00 0.00 42 1018.5
20260901235021 78 158 1.7 6.1 0.00 0.00 0.00 41 1018.5
20260901234521 78 202 1.7 5.2 0.00 0.00 0.00 40 1018.5
20260901234021 78 180 1.7 6.1 0.00 0.01 0.00 40 1018.5
20260901233521 79 188 1.7 1.7 0.00 0.01 0.00 40 1018.5
20260901233021 79 145 1.7 6.1 0.00 0.01 0.00 38 1018.6
20260901232521 80 161 2.6 5.2 0.00 0.01 0.00 38 1018.6
20260901232021 80 180 1.7 8.7 0.00 0.01 0.00 37 1018.7
20260901231521 80 241 1.7 5.2 0.00 0.01 0.00 32 1018.6
20260901231021 80 195 2.6 7.0 0.00 0.01 0.00 32 1019.0
20260901230521 80 193 2.6 6.1 0.00 0.01 0.00 32 1019.0
20260901230021 80 196 2.6 7.8 0.00 0.01 0.00 32 1019.1
20260901225521 80 230 1.7 4.3 0.00 0.01 0.00 38 1019.2
20260901225021 80 242 1.7 6.1 0.00 0.01 0.00 34 1019.1
20260901224521 79 225 1.7 5.2 0.00 0.01 0.00 35 1019.2
20260901224021 78 232 1.7 5.2 0.00 0.23 0.00 40 1019.4
20260901223521 79 158 2.6 8.7 0.00 0.23 0.00 43 1019.4
20260901223021 79 153 2.6 5.2 0.00 0.23 0.00 43 1019.6
20260901222521 79 146 2.6 5.2 0.00 0.23 0.00 42 1019.6
20260901222021 80 232 2.6 9.6 0.00 0.23 0.00 40 1019.6
20260901221521 80 174 2.6 6.1 0.00 0.23 0.00 39 1019.6
20260901221021 81 209 1.7 7.0 0.00 0.23 0.00 38 1019.8
20260901220521 81 219 1.7 5.2 0.00 0.23 0.00 34 1019.8
20260901220021 80 169 1.7 6.1 0.00 0.23 0.00 35 1019.9
20260901215522 80 225 1.7 5.2 0.00 0.23 0.00 35 1019.9
20260901215022 79 223 1.7 4.3 0.00 0.23 0.00 37 1020.0
20260901214522 79 217 2.6 7.8 0.00 0.23 0.00 38 1020.2
20260901214022 80 283 2.6 7.8 0.00 0.36 0.00 35 1020.1
20260901213522 79 250 2.6 6.1 0.00 0.36 0.00 35 1020.5
20260901213022 79 192 2.6 7.0 0.00 0.36 0.00 37 1020.3
20260901212522 79 201 2.6 7.8 0.00 0.36 0.00 38 1020.7
20260901212022 79 188 1.7 7.8 0.00 0.36 0.00 36 1020.7
20260901211522 79 205 0.9 6.1 0.00 0.36 0.00 37 1020.7
20260901211022 79 243 0.9 6.1 0.00 0.36 0.00 40 1020.9
20260901210522 78 198 1.7 9.6 0.00 0.36 0.00 39 1020.6
20260901210022 78 241 1.7 7.0 0.00 0.36 0.00 40 1021.0
20260901205522 77 202 0.9 7.8 0.00 0.36 0.00 44 1020.7
20260901205022 76 241 0.9 5.2 0.00 0.36 0.00 44 1020.9
20260901204522 77 241 0.9 2.6 0.00 0.36 0.00 43 1021.2
20260901204022 77 241 0.9 2.6 0.00 0.36 0.00 43 1021.1
20260901203522 77 248 1.7 6.1 0.00 0.36 0.00 44 1021.1
20260901203022 77 252 1.7 2.6 0.00 0.36 0.00 43 1021.2
20260901202522 77 274 2.6 7.0 0.00 0.36 0.00 44 1021.1
20260901202022 76 231 2.6 7.0 0.00 0.36 0.00 43 1021.4
20260901201522 76 216 1.7 4.3 0.00 0.36 0.00 45 1021.4
20260901201022 77 174 0.9 2.6 0.00 0.36 0.00 46 1021.4
20260901200522 77 177 1.7 2.6 0.00 0.36 0.00 47 1021.6
20260901200022 77 199 1.7 6.1 0.00 0.36 0.00 46 1021.5
20260901195522 76 163 1.7 6.1 0.00 0.36 0.00 48 1021.7
20260901195022 76 169 1.7 7.0 0.00 0.36 0.00 46 1021.7
20260901194524 76 217 1.7 4.3 0.00 0.36 0.00 47 1021.9
20260901194022 76 232 2.6 7.8 0.00 0.36 0.00 48 1021.9
20260901193522 76 152 2.6 7.0 0.00 0.36 0.00 47 1022.0
20260901193022 76 155 1.7 6.1 0.00 0.36 0.00 47 1022.0